This is the latest recevied weather packets stored in our database for station/object KF7ROW. If no packets are shown the sender has not sent any weather packets the latest 10 day(s).
| Time | Temp. | Humidity | Pressure | Rain* | Wind** | Luminosity | Snow |
|---|---|---|---|---|---|---|---|
| 1777398274 | 12.22° C | 74% | 1028.6 hPa | 0 mm | - | 335 W/m² | - |
| 1777397972 | 11.67° C | 77% | 1028.5 hPa | 0 mm | - | 300 W/m² | - |
| 1777397667 | 11.67° C | 76% | 1028.7 hPa | 0 mm | - | 296 W/m² | - |
| 1777397363 | 11.67° C | 75% | 1028.7 hPa | 0 mm | - | 279 W/m² | - |
| 1777397060 | 11.67° C | 75% | 1028.6 hPa | 0 mm | - | 264 W/m² | - |
| 1777396757 | 11.67° C | 76% | 1028.6 hPa | 0 mm | - | 253 W/m² | - |
| 1777396454 | 11.67° C | 77% | 1028.7 hPa | 0 mm | - | 230 W/m² | - |
| 1777396150 | 11.67° C | 79% | 1028.6 hPa | 0 mm | - | 208 W/m² | - |
| 1777395846 | 11.67° C | 75% | 1028.7 hPa | 0 mm | - | 220 W/m² | - |
| 1777395542 | 11.67° C | 77% | 1028.4 hPa | 0 mm | - | 191 W/m² | - |
| 1777395238 | 11.67° C | 78% | 1028.6 hPa | 0 mm | - | 174 W/m² | - |
| 1777394936 | 11.67° C | 79% | 1028.6 hPa | 0 mm | - | 171 W/m² | - |
| 1777394632 | 11.67° C | 81% | 1028.7 hPa | 0 mm | - | 165 W/m² | - |
| 1777394329 | 11.67° C | 81% | 1028.8 hPa | 0 mm | - | 183 W/m² | - |
| 1777394024 | 11.67° C | 80% | 1028.6 hPa | 0 mm | - | 168 W/m² | - |
| 1777393719 | 11.67° C | 80% | 1028.5 hPa | 0 mm | - | 184 W/m² | - |
| 1777393414 | 11.67° C | 82% | 1028.5 hPa | 0 mm | - | 204 W/m² | - |
| 1777393111 | 11.67° C | 83% | 1028.3 hPa | 0 mm | - | 191 W/m² | - |
| 1777392807 | 11.67° C | 83% | 1028.3 hPa | 0 mm | - | 180 W/m² | - |
| 1777392503 | 11.11° C | 84% | 1028.5 hPa | 0 mm | - | 174 W/m² | - |
| 1777392199 | 11.11° C | 85% | 1028.5 hPa | 0 mm | - | 155 W/m² | - |
| 1777391894 | 11.11° C | 87% | 1028.4 hPa | 0 mm | - | 148 W/m² | - |
| 1777391589 | 10.56° C | 88% | 1028.3 hPa | 0 mm | - | 148 W/m² | - |
| 1777391286 | 10.56° C | 90% | 1028.5 hPa | 0 mm | - | 127 W/m² | - |
| 1777390983 | 10.56° C | 91% | 1028.5 hPa | 0 mm | - | 102 W/m² | - |
* Rain latest hour (hover to see other rain measurements)
** Current wind speed in m/s (hover to see current wind gust speed)